This is the latest recevied weather packets stored in our database for station/object OM4MO-10. If no packets are shown the sender has not sent any weather packets the latest 10 day(s).
| Time | Temp. | Humidity | Pressure | Rain* | Wind** | Luminosity | Snow |
|---|---|---|---|---|---|---|---|
| 1777588249 | 1.67° C | 100% | 1023.3 hPa | - | - | - | - |
| 1777587049 | 2.78° C | 100% | 1022.9 hPa | - | - | - | - |
| 1777585849 | 1.67° C | 100% | 1022.7 hPa | - | - | - | - |
| 1777584649 | 2.22° C | 99% | 1022.4 hPa | - | - | - | - |
| 1777583448 | 2.22° C | 99% | 1022.5 hPa | - | - | - | - |
| 1777582248 | 2.78° C | 97% | 1022.4 hPa | - | - | - | - |
| 1777581048 | 3.89° C | 82% | 1024.1 hPa | - | - | - | - |
| 1777579848 | 3.33° C | 94% | 1023 hPa | - | - | - | - |
| 1777578648 | 5° C | 80% | 1024.9 hPa | - | - | - | - |
| 1777577448 | 4.44° C | 72% | 1026.7 hPa | - | - | - | - |
| 1777576248 | 5.56° C | 67% | 1027.9 hPa | - | - | - | - |
| 1777575048 | 6.67° C | 57% | 1030.3 hPa | - | - | - | - |
| 1777573847 | 7.22° C | 50% | 1032.6 hPa | - | - | - | - |
| 1777572647 | 7.78° C | 44% | 1035.5 hPa | - | - | - | - |
| 1777571447 | 9.44° C | 38% | 1038.9 hPa | - | - | - | - |
| 1777570247 | 10.56° C | 34% | 1041.2 hPa | - | - | - | - |
| 1777569047 | 11.67° C | 32% | 1042.5 hPa | - | - | - | - |
| 1777567847 | 13.89° C | 27% | 1045.2 hPa | - | - | - | - |
| 1777566647 | 13.33° C | 29% | 1044 hPa | - | - | - | - |
| 1777565447 | 13.89° C | 28% | 1045.1 hPa | - | - | - | - |
| 1777564246 | 13.89° C | 28% | 1045.2 hPa | - | - | - | - |
| 1777563046 | 13.33° C | 28% | 1045 hPa | - | - | - | - |
| 1777561846 | 14.44° C | 25% | 1046.4 hPa | - | - | - | - |
| 1777560646 | 13.89° C | 27% | 1045.5 hPa | - | - | - | - |
| 1777559446 | 15° C | 28% | 1045.3 hPa | - | - | - | - |
* Rain since midnight (hover to see other rain measurements)
** Current wind speed in m/s (hover to see current wind gust speed)